Regional Weather Roundup
Issued by NWS

Home | Current Version | Previous Version | Graphics & Text | Print | Product List | Glossary On
Versions: 1 2 3 4 5 6 7 8 9 10 11 12 13 14 15 16 17 18 19 20 21 22 23 24 25 26 27 28 29 30 31 32 33 34 35 36 37 38 39 40 41 42 43 44 45 46 47 48 49 50
000
ASUS43 KOAX 251102
RWRNE

WEATHER ROUNDUP FOR NEBRASKA
NATIONAL WEATHER SERVICE OMAHA NE
600 AM CDT SAT MAR 25 2017

NOTES: SATELLITE DATA IS BEING USED TO AUGMENT CLOUD COVER ABOVE
       12000 FEET.
       "FAIR" INDICATES FEW OR NO CLOUDS BELOW 12,000 FEET WITH NO
       SIGNIFICANT WEATHER AND/OR OBSTRUCTIONS TO VISIBILITY.

  * THESE STATIONS DO NOT REPORT WEATHER SUCH AS RAIN...SNOW OR FOG.

NEZ001>004-019>022-054>056-251200-
NEBRASKA PANHANDLE

CITY           SKY/WX    TMP DP  RH WIND       PRES   REMARKS
SCOTTSBLUFF    CLOUDY    30  25  81 E8        30.03S WCI  22
ALLIANCE       CLOUDY    23  21  92 SE7       30.03S WCI  15
CHADRON        CLOUDY    33  28  81 CALM      30.00S
KIMBALL        CLOUDY    29  29  96 SW5       30.05S WCI  24
SIDNEY         CLOUDY    21  19  92 SW6       30.06F WCI  13
$$

NEZ057>060-069>072-079>082-251200-
SOUTHWEST NEBRASKA

CITY           SKY/WX    TMP DP  RH WIND       PRES   REMARKS
NORTH PLATTE   CLOUDY    27  23  85 W5        30.05F WCI  22
IMPERIAL       CLOUDY    32  27  81 NW8       30.06R WCI  25
LEXINGTON      CLOUDY    35  32  91 N10       30.05R WCI  27
MCCOOK         CLEAR     34  32  92 N6        30.03F WCI  29
OGALLALA       CLOUDY    30  28  90 CALM      30.06S
$$

NEZ005>010-023>029-035>040-094-251200-
NORTH CENTRAL NEBRASKA

CITY           SKY/WX    TMP DP  RH WIND       PRES   REMARKS
VALENTINE      CLOUDY    20  17  88 CALM      30.06S
AINSWORTH      SNOW      29  29 100 NE5       30.06S VSB 1/4 WCI  24
BROKEN BOW     CLOUDY    34  32  92 N10       30.05R WCI  26
O`NEILL        CLOUDY    35  35  99 N7        30.08R FOG     WCI  29
ORD            FOG       36  34  92 NE10      30.06R VSB 3/4 WCI  28
THEDFORD       CLOUDY    26  24  95 CALM      30.06F
$$

NEZ041-046>049-061>064-073>077-083>087-251200-
SOUTH CENTRAL NEBRASKA

CITY           SKY/WX    TMP DP  RH WIND       PRES   REMARKS
GRAND ISLAND   LGT RAIN  36  36 100 N17       30.03S FOG     WCI  26
AURORA         CLOUDY    36  36  98 N21G29    30.01S FOG     WCI  25
HASTINGS       CLOUDY    38  36  92 N20       30.01S FOG     WCI  28
HEBRON         LGT RAIN  39  38  94 N16       29.97R WCI  30
HOLDREGE       CLOUDY    38  36  94 N13       30.02R FOG     WCI  30
KEARNEY *      CLOUDY    37  34  87 N18       30.03S WCI  27
YORK           MIX PCPN  37  37 100 N21G26    29.99S WCI  27
$$

NEZ011>018-030>034-042>045-251200-
NORTHEAST NEBRASKA

CITY           SKY/WX    TMP DP  RH WIND       PRES   REMARKS
NORFOLK        CLOUDY    35  34  96 N20       30.04S FOG     WCI  24
ALBION         CLOUDY    37  34  90 N12G20    30.06S FOG     WCI  29
BLAIR          LGT RAIN  40  39  95 N18G24    29.95R WCI  31
FREMONT        RAIN      39  39 100 N9G17     30.00R WCI  33
TEKAMAH        LGT RAIN  40  37  89 N21G30    30.00R WCI  30
WAYNE          CLOUDY    36  36  99 N14G22    30.05R FOG     WCI  27
$$

NEZ050>053-065>068-078-088>093-251200-
SOUTHEAST NEBRASKA

CITY           SKY/WX    TMP DP  RH WIND       PRES   REMARKS
LINCOLN        LGT RAIN  40  39  97 N17       29.97R FOG     WCI  31
OMAHA EPPLEY   RAIN      41  37  86 N16       29.95R FOG
BEATRICE       MIX PCPN  41  40  97 N18       29.93R
FALLS CITY     LGT RAIN  43  43 100 N14G21    29.85R FOG
NEBRASKA CITY  RAIN      40  40 100 N16G24    29.90R WCI  32
PLATTSMOUTH    RAIN      40  38  91 N13G21    29.92R WCI  33
$$

NEZ044-045-051>053-067-251200-
OMAHA AREA

CITY           SKY/WX    TMP DP  RH WIND       PRES   REMARKS
OMAHA EPPLEY   RAIN      41  37  86 N16       29.95R FOG
BLAIR          LGT RAIN  40  39  95 N18G24    29.95R WCI  31
FREMONT        RAIN      39  39 100 N9G17     30.00R WCI  33
MILLARD        RAIN      42  41  95 N8        29.96R
OFFUTT AFB     LGT RAIN  41  39  91 N9G17     29.94R
PLATTSMOUTH    RAIN      40  38  91 N13G21    29.92R WCI  33
WAHOO          DRIZZLE   40  38  95 N14G22    29.99R WCI  32
$$




USA.gov is the U.S. government's official web portal to all federal, state and local government web resources and services.